Tracking 29892 objects as of 21-Nov-2024
HD Live streaming from Space Station
objects crossing your sky now

MOLNIYA 1-29

Track MOLNIYA 1-29 now!
MOLNIYA 1-29 is classified as:


NORAD ID: 7780
Int'l Code: 1975-036A
Perigee: 2,306.5 km
Apogee: 38,066.4 km
Inclination: 63.5 °
Period: 717.9 minutes
Semi major axis: 26557 km
RCS: 18.4266 m2 (large)
Launch date: April 29, 1975
Source: Commonwealth of Independent States (former USSR) (CIS)
Launch site: PLESETSK MISSILE AND SPACE COMPLEX (PKMTR)
Your satellite tracking list
Your tracking list is empty




NASA's NSSDC Master Catalog

Two Line Element Set (TLE):
1 07780U 75036A   24325.50691316  .00000335  00000-0 -35575-1 0  9998
2 07780  63.5377 123.5647 6732563 282.7620  14.6880  2.00596543363410
Source of the keplerian elements: AFSPC